www.pogodaiklimat.ru
ПОГОДА в Норт Адамс
Время
(UTC), дата
02:36 20.11
02:45 20.11
02:52 20.11
03:52 20.11
04:23 21.11
04:31 21.11
04:52 21.11
05:35 21.11
05:52 21.11
06:05 21.11
06:52 21.11
07:52 21.11
08:52 21.11
09:25 21.11
09:33 21.11
09:52 21.11
10:13 21.11
10:29 21.11
10:52 21.11
11:52 21.11
12:52 21.11
13:52 21.11
14:17 21.11
14:36 21.11
14:52 21.11
15:52 21.11
16:52 21.11
17:52 21.11
18:52 21.11
19:52 21.11
20:52 21.11
21:52 21.11
22:52 21.11
23:52 21.11
00:52 21.11
01:52 21.11
02:52 21.11
03:52 21.11
04:52 22.11
05:52 22.11
06:52 22.11
07:52 22.11
08:52 22.11
09:52 22.11
10:52 22.11
11:52 22.11
12:52 22.11
13:52 22.11
Ветер
(напр.,м/с)
Видим. Явления Облачность Т
(С)
Тd
(С)
f
(%)
Тe
(С)
Тes
(С)
Комфортность P
(гПа)
Po
(гПа)
Тmin
(С)
Tmax
(С)
R
(мм)
R24
(мм)
S
(см)
З 6
{8}
16 км 10/10 330 м +1.1 -1.7 82 -5 -5 995.4
З 4 16 км 10/10 300 м +1.1 -1.7 82 -5 -5 995.4
З 4 16 км 10/10 300 м +1.1 -1.7 82 -4 -4 1020.0 995.4
З 5 16 км 10/10 330 м +1.1 -1.7 82 -5 -5 1020.2 995.4
З 5
{9}
16 км 10/10 450 м +1.1 -1.7 82 -5 -5 995.4
З 4 16 км 10/10 390 м +1.1 -1.7 82 -4 -4 995.4
З 6
{10}
16 км 10/10 390 м +1.1 -1.7 82 -6 -6 1020.3 995.7 +0.6 +1.1
З 4
{9}
16 км 10/10 420 м +1.1 -1.7 82 -5 -5 996.0
З 6 16 км 10/10 360 м +1.1 -2.2 79 -6 -6 1021.0 996.3
З 6 16 км 10/10 390 м +1.1 -1.7 82 -5 -5 996.3
З 4 16 км 10/10 330 м +0.6 -2.2 81 -5 -5 1020.9 996.3
0 16 км 10/10 330 м +0.6 -2.2 81 -0 -0 1021.4 996.7
З 4 16 км 10/10 300 м 0.0 -2.8 81 -5 -5 1021.8 997.0
З 3 16 км 10/10 300 м 0.0 -2.8 81 -5 -5 997.0
З 3 16 км 10/10 240 м 0.0 -2.8 81 -5 -5 997.0
ЮЗ 4 16 км 10/10 240 м 0.0 -2.8 81 -6 -6 1021.8 997.0
ЮЗ 5 16 км 10/10 240 м 0.0 -2.2 85 -7 -7 997.3
З 4 16 км 10/10 510 м 0.0 -2.2 85 -6 -6 997.7
З 3 16 км 10/10 540 м 0.0 -2.2 85 -5 -5 1022.5 997.7 -0.6 +1.1 0.3
З 3 16 км 10/10 540 м 0.0 -2.2 85 -5 -5 1022.9 998.0
ЮЗ 3 16 км 10/10 450 м +0.6 -2.2 81 -4 -4 1023.2 998.3
0 16 км 10/10 510 м +1.7 -2.2 75 +1 +1 1023.1 998.3
нст 2 16 км 10/10 420 м +1.1 -2.8 75 -3 -3 998.3
нст 3 16 км 5/5 450 м +2.8 -2.2 70 -1 0 998.0
З 3 16 км 2/2 450 м +2.2 -2.2 73 -2 0 1022.4 997.7
нст 1 16 км 2/2 510 м +2.8 -2.2 70 +1 +4 1022.1 997.3
нст 1 16 км 2/2 660 м +4.4 -1.7 65 +3 +6 1020.6 996.0 0.0 +4.4
0 16 км ясно +5.0 -1.7 62 +4 +10 1020.0 995.7
СЗ 1 16 км ясно +5.0 -1.7 62 +3 +6 1019.9 995.4
Ю 1 16 км ясно +2.2 -1.1 79 -0 +1 1019.2 994.7
0 16 км ясно +0.6 -2.2 81 -0 -0 1019.0 994.4
0 16 км ясно -0.6 -1.7 92 -2 -2 1018.8 994.0
В 3 16 км ясно +0.6 -1.1 88 -4 -4 1018.2 993.7 -1.1 +5.6
0 16 км ясно +1.1 -1.7 82 0 0 1017.3 992.7
В 3 16 км 10/0 3000 м
[средняя]
+2.2 -1.7 75 -2 -2 1016.1 991.7
В 4 16 км 10/0 2400 м
[средняя]
+2.2 -1.1 79 -3 -3 1015.9 991.4
В 4
{10}
16 км слабый дождь 10/5 1950 м
[средняя]
+2.8 -0.6 78 -2 -2 1013.6 989.1
В 4 16 км 10/0 3000 м
[средняя]
+2.8 -0.6 78 -2 -2 1012.4 988.1
В 4 16 км 10/0 3000 м
[средняя]
+5.0 0.0 70 +1 +1 1011.2 987.1 0.0 +5.0
нст 2 16 км 10/0 2100 м
[средняя]
+6.1 0.0 65 +4 +4 1011.0 986.8
нст 3 16 км 10/10 1350 м +5.6 +1.1 73 +2 +2 1009.7 985.8
нст 1 16 км 10/10 1080 м +5.6 +1.1 73 +4 +4 1009.1 984.8
0 16 км 10/10 1110 м +5.6 +1.1 73 +5 +5 1008.3 984.1
0 16 км 10/10 1650 м +5.6 +1.1 73 +5 +5 1007.9 983.8
0 16 км 10/10 1800 м +6.1 +1.1 70 +5 +5 1006.9 982.8 +5.0 +6.7
В 3 16 км 10/10 1500 м +6.1 +1.7 73 +3 +3 1005.7 981.5
ЮВ 3 16 км 10/10 1650 м +6.7 +1.7 70 +4 +4 1004.6 980.5
Ю 1 16 км слабый дождь 10/8 1410 м
[средняя]
+7.2 +1.7 68 +6 +6 1004.2 980.1
Местоположение метеостанции Harriman-And-West Airport: широта 42.6972 долгота -73.1703 высота над уровнем моря 199 м.
В архиве по умолчанию представлена погода в Норт Адамс за последние 1-2 суток. Обновление информации о фактической погоде в базе происходит ежечасно! Архивные данные за месяц целиком и за предыдущие месяцы Вы можете получить, выбрав интересующий диапазон дат из раскрывающегося списка и нажав кнопку "Ввод!".
Внимание! Архив погоды МЕТАР в базе сайта по станциям, не включенным в климатический монитор, хранится не более 60 дней. Нет смысла пытаться выбрать более раннюю дату.
*Определитесь, кто Вы:
Внимание! Время в таблицах - всемирное. Для получения местного времени необходимо прибавить поправку, которая равна ч.
Смотрите также архив погоды в соседних городах и на ближайших метеорологических станциях:
Партнеры нашего сайта:      
Пояснения к столбцам:
  • Ветер - указаны скорость ветра в м/с - средняя за 10 мин, порывы в срок и между сроками (в фигурных скобках) и направление, откуда дует ветер: С - северный,
  • СВ - северо-восточный, В - восточный, ЮВ - юго-восточный, Ю - южный, ЮЗ - юго-западный, З - западный, СЗ - северо-западный.
  • Видимость - горизонтальная дальность видимости в метрах или километрах. При видимости от 1 до 10 км при отсутствии осадков обычно наблюдается дымка, при ухудшении видимости до 1 км и менее - туман. В сухую погоду видимость может ухудшаться дымом, пылью или мглою.
  • Явления - указаны атмосферные явления, наблюдавшиеся в срок или в последний час перед сроком; фигурными скобками обозначены явления, наблюдавшиеся между сроками (за 1-3 часа до срока); квадратными скобками обозначены град или гололедные отложения с указанием их диаметра в мм.
  • Облачность - указаны через наклонную черту общая и нижняя облачность в баллах и высота нижней границы облаков в метрах; квадратными скобками обозначены формы облаков: Ci - перистые, Cs - перисто-слоистые, Cc - перисто-кучевые, Ac - высококучевые, As - высокослоистые, Sc - слоисто-кучевые, Ns - слоисто-дождевые, Cu - кучевые, Cb - кучево-дождевые. Подробнее классификацию облаков см. в Атласе облаков (PDF).
  • T - Температура воздуха - температура, измеренная на высоте 2 м над землей.
  • Td - Температура точки росы - температура, при понижении до которой содержащийся в воздухе водяной пар достигнет насыщения.
  • f - Относительная влажность воздуха - влажноcть воздуха, измеренная на высоте 2 м над землей.
  • Te - Эффективная температура - температура, которую ощущает одетый по сезону человек в тени. Характеристика душности погоды. При расчете учитывается влияние влажности воздуха и скорости ветра на теплоощущения человека.
  • Tes - Эффективная температура на солнце - температура, которую ощущает человек, с поправкой на солнечный нагрев. Характеристика знойности погоды. Зависит от высоты солнца над горизонтом, облачности и скорости ветра. Ночью, в пасмурную погоду, а также при ветре 12 м/с и более поправка равна нулю.
  • P - Атмосферное давление - приведенное к уровню моря атмосферное давление.
  • Po - Атмосферное давление - измеренное на уровне метеостанции атмосферное давление.
  • Tmin - Минимальная температура - минимум температуры воздуха на высоте 2 м над землей.
  • Tmax - Максимальная температура - максимум температуры воздуха на высоте 2 м над землей.
  • R - Количество осадков - Количество выпавших осадков за период времени, мм. При наведении курсора мыши на число - период времени, за который выпало указанное количество осадков.
  • R24 - Количество осадков - Количество выпавших осадков за 24 часа, мм.
  • S - Снежный покров - Высота снежного покрова, см. При наведении курсора мыши на число - состояние снежного покрова и степень покрытия местности в баллах.